User: anonymous   Login
Location: DaVinci Observatory
(43.1080°N, 78.6453°W)
Time: 05:28:48
(UTC-05:00)
Language:

TIGRISAT - Orbit

View from above orbital plane
View from above orbital plane
View from above satellite
View from above satellite

Ground track
Ground track

The orbit data is extracted from the following two-line orbital elements,

1 40043U 14033AK  18321.57085949  .00000153  00000-0  29912-4 0  9990
2 40043  97.7844 193.0888 0061350  64.9343 295.8218 14.74196107237202
Epoch (UTC): 17 November 2018 13:42:02
Eccentricity: 0.0061350
inclination: 97.7844°
perigee height: 604 km
apogee height: 691 km
right ascension of ascending node: 193.0888°
argument of perigee: 64.9343°
revolutions per day: 14.74196107
mean anomaly at epoch: 295.8218°
orbit number at epoch: 23720

The dashed part of the orbit path shows where the satellite is in the earth's shadow,  

DLR